Location: ActonStarParty
(42.4766°N, 71.4538°W)
Time: 07:26:13
(UTC-04:00)

Lacrosse 5 - Pass Details

Date: 19 April 2018
Orbit: 713 x 726 km, 57.0° (Epoch: 17 September)

Event Time Altitude Azimuth Distance (km) Brightness Sun altitude
Rises 22:25:54 0° 314° (NW) 3,146 6.5 -27.4°
Reaches altitude 10° 22:28:47 10° 330° (NNW) 2,223 5.4 -27.7°
Maximum altitude 22:32:47 22° 21° (NNE) 1,546 3.8 -28.2°
Enters shadow 22:34:15 20° 45° (NE) 1,652 3.8 -28.3°
